Location: Lane
(33.5226°N, 79.8788°W)
Time: 10:01:29
(UTC+00:00)

Altair - Pass Details

Date: 08 October 2022
Orbit: 1501 x 1682 km, 47.2° (Epoch: 30 November)

Event Time Altitude Azimuth Distance (km) Brightness Sun altitude
Rises 16:40:15 0° 301° (WNW) 4,917 9.9 49.9°
Reaches altitude 10° 16:43:41 10° 294° (WNW) 3,937 9.5 50.0°
Maximum altitude 16:52:42 38° 230° (SW) 2,367 9.4 50.3°
Drops below altitude 10° 17:01:41 10° 167° (SSE) 3,908 10.5 50.4°
Sets 17:05:07 0° 159° (SSE) 4,877 10.7 50.4°
